CW5586 Weather Reports


Display with metric or nautical units.
time (UTC)temp
F
wind
direction
speed
MPH
gust
MPH
rain 1hr
in
rain 24hr
in
rain mn
in
humidity
%
barometer
mb
20260504214604 47 242 6.0 9.0 0.00 0.14 0.14 82 1009.4
20260504211603 47 201 5.0 13.0 0.00 0.14 0.14 81 1009.3
20260504203104 47 169 1.0 10.0 0.00 0.14 0.14 80 1009.3
20260504201604 47 202 2.0 13.0 0.00 0.14 0.14 79 1009.3
20260504200603 47 336 2.0 14.0 0.00 0.14 0.14 78 1009.3
20260504200115 47 269 5.0 14.0 0.00 0.14 0.14 78 1009.3
20260504194604 47 242 5.0 12.0 0.00 0.14 0.14 77 1009.3
20260504193604 47 226 6.0 10.0 0.00 0.14 0.14 76 1009.2
20260504193104 48 244 5.0 16.0 0.00 0.14 0.14 76 1009.3
20260504191604 48 236 3.0 15.0 0.00 0.14 0.14 76 1009.1
20260504190604 48 267 5.0 10.0 0.00 0.14 0.14 75 1009.0
20260504183604 49 276 8.0 10.0 0.00 0.14 0.14 75 1009.0
20260504180605 50 263 9.0 14.0 0.00 0.14 0.14 72 1008.7
20260504174604 52 215 7.0 12.0 0.00 0.14 0.14 66 1008.6
20260504170115 54 329 1.0 15.0 0.00 0.14 0.14 55 1008.7
20260504160114 55 300 14.0 20.0 0.00 0.14 0.14 45 1008.8
20260504150605 55 263 8.0 14.0 0.00 0.14 0.14 44 1008.8
20260504141103 56 236 6.0 13.0 0.00 0.14 0.14 58 1008.4
20260504120115 56 281 3.0 10.0 0.00 0.14 0.14 62 1007.2
20260504110115 54 271 12.0 16.0 0.00 0.14 0.14 70 1007.0
20260504100604 53 263 3.0 10.0 0.00 0.14 0.14 74 1006.8
20260504100114 53 167 1.0 12.0 0.00 0.14 0.14 74 1006.8
20260504080604 52 196 3.0 10.0 0.00 0.14 0.14 74 1006.1
20260504080115 52 216 2.0 15.0 0.00 0.14 0.14 73 1006.1
20260504070115 50 221 5.0 8.0 0.00 0.14 0.14 85 1005.7
20260504060115 49 136 1.0 8.0 0.00 0.14 0.14 89 1005.6
20260504044605 49 232 3.0 6.0 0.00 0.14 0.14 95 1005.4
20260504041604 50 265 2.0 2.0 0.00 0.14 0.14 95 1005.5
20260504041104 50 205 2.0 0.0 0.00 0.14 0.14 95 1005.5
20260504040605 50 0 0.0 3.0 0.00 0.14 0.14 95 1005.5
20260504040114 50 0 0.0 3.0 0.00 0.14 0.14 95 1005.5
20260504034104 50 218 1.0 2.0 0.00 0.14 0.14 95 1005.2
20260504033104 50 226 1.0 3.0 0.01 0.14 0.14 95 1005.5
20260504030604 50 146 1.0 2.0 0.02 0.14 0.14 95 1005.7
20260504014604 50 184 1.0 2.0 0.04 0.13 0.13 94 1006.2
20260504013104 50 179 1.0 2.0 0.04 0.12 0.12 94 1006.3
20260504011604 50 0 0.0 2.0 0.05 0.11 0.11 94 1006.4
20260504011104 50 0 0.0 2.0 0.05 0.11 0.11 94 1006.4
20260504010604 50 0 0.0 1.0 0.05 0.10 0.10 94 1006.4
20260504004604 50 188 0.0 3.0 0.04 0.09 0.09 94 1006.6
20260504003104 50 0 0.0 2.0 0.03 0.08 0.08 94 1006.6
20260504001603 50 188 1.0 2.0 0.02 0.06 0.06 93 1006.8
20260504001103 50 178 1.0 2.0 0.02 0.06 0.06 93 1006.7
20260504000114 50 0 0.0 2.0 0.03 0.06 0.06 93 1006.8
20260503234603 50 0 0.0 2.0 0.04 0.05 0.05 93 1006.9
20260503233603 50 178 2.0 2.0 0.05 0.05 0.05 93 1007.0
20260503231604 50 169 1.0 2.0 0.04 0.04 0.04 92 1007.3
20260503231103 50 163 1.0 2.0 0.04 0.04 0.04 92 1007.3
20260503224603 50 0 0.0 2.0 0.01 0.01 0.01 91 1007.3
20260503224104 50 141 0.0 2.0 0.00 0.00 0.00 91 1007.2
20260503223603 50 0 0.0 2.0 0.00 0.00 0.00 90 1007.2
20260503221603 50 170 1.0 2.0 0.00 0.00 0.00 90 1007.3